Flag for Tunisia Weather past 2 weeks in Sfax, Tunisia

Now
88 °F

Sunny.


Feels Like: 93 °F
Forecast: 78 / 91 °F
Wind: 13 mph from South

Location: Sfax El-Maou

Current Time: Jul 26, 2014 at 2:15:32 PM

Latest Report: Jul 26, 2014 at 1:00 PM


Visibility: 10 mi

Pressure: 29.83 "Hg

Humidity: 55%

Dew point: 70 °F

Location of SfaxLocation

Historic Weather in Sfax — Graph

°F

Sfax temperature yesterday

Maximum temperature yesterday: 90 °F (at 12:00 PM)
Minimum temperature yesterday: 75 °F (at 2:00 AM)
Average temperature yesterday: 83 °F

Past Weeks' High & Low Weather Summary

 TemperatureHumidityPressure
High91 °F (Jul 19, 2:00 PM)89% (Jul 25, 6:00 AM)30.09 "Hg (Jul 25, 6:00 AM)
Low68 °F (Jul 16, 5:00 AM)30% (Jul 19, 2:00 PM)29.83 "Hg (Jul 26, 2:00 AM)
Average81 °F61%29.98 "Hg
* Reported Jul 11 1:00 PM — Jul 26 1:00 PM, Sfax, Weather by CustomWeather, © 2014

Note: Actual official high and low records may vary slightly from our data, if they occured in-between our weather recording intervals... More about our weather records

Advertising

Sfax weather history for previous 24 hours

 ConditionsComfort  
Time TempWeatherWind HumidityBarometerVisibility
1:00 PM
Jul 26
88 °FSunny.13 mph55%29.83 "Hg10 mi
12:00 PM90 °FSunny.15 mph55%29.83 "Hg10 mi
11:00 AM88 °FScattered clouds.13 mph59%29.86 "HgN/A
10:00 AM86 °FScattered clouds.12 mph66%29.86 "HgN/A
9:00 AM84 °FScattered clouds.12 mph66%29.86 "HgN/A
8:00 AM84 °FScattered clouds.12 mph70%29.86 "HgN/A
7:00 AM82 °FPassing clouds.13 mph66%29.83 "HgN/A
6:00 AM81 °FSunny.9 mph66%29.86 "Hg10 mi
5:00 AM79 °FPassing clouds.7 mph70%29.86 "HgN/A
4:00 AM77 °FClear.9 mph74%29.86 "Hg10 mi
3:00 AM77 °FClear.6 mph74%29.83 "Hg10 mi
2:00 AM77 °FClear.5 mph69%29.83 "Hg10 mi
1:00 AM79 °FClear.2 mph70%29.86 "Hg10 mi
12:00 AM79 °FClear.1 mph70%29.89 "Hg10 mi
11:00 PM
Jul 25
81 °FPassing clouds.5 mph70%29.89 "HgN/A
10:00 PM82 °FClear.8 mph66%29.86 "Hg10 mi
9:00 PM82 °FClear.10 mph66%29.89 "Hg10 mi
8:00 PM82 °FClear.9 mph66%29.86 "Hg10 mi
7:00 PM84 °FPassing clouds.13 mph62%29.86 "HgN/A
6:00 PM88 °FSunny.13 mph49%29.89 "Hg10 mi
5:00 PM90 °FPassing clouds.7 mph49%29.89 "HgN/A
4:00 PM90 °FSunny.13 mph52%29.86 "Hg10 mi
3:00 PM88 °FPassing clouds.14 mph55%29.86 "HgN/A
2:00 PM90 °FSunny.13 mph52%29.89 "Hg10 mi
Weather by CustomWeather, © 2014

See weather overviewHow to use our weather pages